Weather History for Metlakatla, AK

Change the Weather History Date:

Wednesday, February 6, 2013

  Actual Average Record
Temperature  
Mean Temperature 38 °F -  
Max Temperature 42 °F 38 °F 48 °F (2012)
Min Temperature 35 °F 32 °F 23 °F (2014)
Degree Days  
Heating Degree Days 26    
Moisture  
Dew Point 34 °F    
Average Humidity 80    
Maximum Humidity 93    
Minimum Humidity 66    
Precipitation  
Precipitation 0.00 in - - ()
Sea Level Pressure  
Sea Level Pressure 29.63 in    
Wind  
Wind Speed 7 mph (East)    
Max Wind Speed 14 mph    
Max Gust Speed 20 mph    
Visibility 10 miles    
Events      
Averages and records for this station are not official NWS values.
T = Trace of Precipitation, MM = Missing Value Source: NWS Daily Summary

Daily Weather History Graph

Daily Weather History Graph

Search for Another Location

Airport:

Trip Planner

Search our weather history database for the weather conditions in past years. The results will help you decide how hot, cold, wet, or windy it might be!

Date:

Astronomy

Feb. 06, 2013 Rise Set
Actual Time 7:27 AM AKST 4:34 PM AKST
Civil Twilight 6:48 AM AKST 5:13 PM AKST
Nautical Twilight 6:04 AM AKST 5:56 PM AKST
Astronomical Twilight 5:22 AM AKST 6:39 PM AKST
Moon 4:38 AM AKST (2/6) 12:39 PM AKST (2/6)
Length of Visible Light 10h 25m
Length of Day
9h 07m
Waning Crescent, 15% of the Moon is Illuminated
Feb 6
Waning Crescent
Feb 9
New
Feb 17
First Quarter
Feb 25
Full
Mar 4
Last Quarter

Hourly Weather History & Observations

Time (AKST) Temp. Windchill Dew Point Humidity Pressure Visibility Wind Dir Wind Speed Gust Speed Precip Events Conditions
12:16 AM 42.8 °F 37.5 °F 33.8 °F 70% 29.48 in 10.0 mi ENE 9.2 mph - N/A   Overcast
12:36 AM 42.8 °F 37.5 °F 33.8 °F 70% 29.48 in 10.0 mi East 9.2 mph - N/A   Overcast
12:56 AM 42.8 °F 37.0 °F 33.8 °F 70% 29.48 in 10.0 mi East 10.4 mph - N/A   Overcast
1:36 AM 42.8 °F 37.5 °F 33.8 °F 70% 29.49 in 10.0 mi East 9.2 mph - N/A   Overcast
1:56 AM 42.8 °F 37.5 °F 33.8 °F 70% 29.50 in 10.0 mi East 9.2 mph - N/A   Overcast
2:16 AM 42.8 °F 37.5 °F 32.0 °F 66% 29.50 in 10.0 mi East 9.2 mph - N/A   Overcast
2:36 AM 42.8 °F 39.3 °F 32.0 °F 66% 29.50 in 10.0 mi East 5.8 mph - N/A   Overcast
3:16 AM 42.8 °F 40.1 °F 33.8 °F 70% 29.51 in 10.0 mi East 4.6 mph - N/A   Overcast
3:36 AM 42.8 °F 39.3 °F 33.8 °F 70% 29.51 in 10.0 mi East 5.8 mph - N/A   Overcast
3:56 AM 42.8 °F 39.3 °F 32.0 °F 66% 29.51 in 10.0 mi East 5.8 mph - N/A   Overcast
4:16 AM 42.8 °F 41.1 °F 33.8 °F 70% 29.52 in 10.0 mi South 3.5 mph - N/A   Overcast
4:36 AM 42.8 °F - 33.8 °F 70% 29.53 in 10.0 mi Calm Calm - N/A   Overcast
4:56 AM 42.8 °F 40.1 °F 33.8 °F 70% 29.54 in 10.0 mi ESE 4.6 mph - N/A   Overcast
5:16 AM 42.8 °F 40.1 °F 33.8 °F 70% 29.54 in 10.0 mi ESE 4.6 mph - N/A   Overcast
5:36 AM 41.0 °F - 33.8 °F 76% 29.55 in 10.0 mi Calm Calm - N/A   Overcast
5:56 AM 42.8 °F 38.6 °F 32.0 °F 66% 29.56 in 10.0 mi East 6.9 mph - N/A   Overcast
6:16 AM 39.2 °F 33.0 °F 33.8 °F 81% 29.56 in 10.0 mi East 9.2 mph - N/A   Overcast
6:36 AM 39.2 °F 34.2 °F 33.8 °F 81% 29.57 in 10.0 mi East 6.9 mph - N/A   Overcast
6:56 AM 39.2 °F 33.6 °F 33.8 °F 81% 29.58 in 10.0 mi ENE 8.1 mph - N/A   Mostly Cloudy
7:16 AM 39.2 °F 33.6 °F 35.6 °F 87% 29.58 in 10.0 mi East 8.1 mph - N/A   Overcast
7:36 AM 39.2 °F 33.6 °F 33.8 °F 81% 29.59 in 10.0 mi ENE 8.1 mph - N/A   Overcast
7:56 AM 39.2 °F 34.2 °F 33.8 °F 81% 29.60 in 10.0 mi East 6.9 mph - N/A   Overcast
8:16 AM 39.2 °F 31.6 °F 33.8 °F 81% 29.61 in 9.0 mi East 12.7 mph - N/A   Overcast
8:36 AM 37.4 °F 28.9 °F 33.8 °F 87% 29.61 in 9.0 mi East 13.8 mph 19.6 mph N/A   Overcast
8:56 AM 37.4 °F 29.8 °F 33.8 °F 87% 29.62 in 10.0 mi ENE 11.5 mph - N/A   Overcast
9:16 AM 37.4 °F 29.8 °F 33.8 °F 87% 29.62 in 10.0 mi ENE 11.5 mph 17.3 mph N/A   Overcast
9:36 AM 39.2 °F 31.6 °F 33.8 °F 81% 29.63 in 10.0 mi East 12.7 mph 18.4 mph N/A   Overcast
10:16 AM 39.2 °F 31.2 °F 33.8 °F 81% 29.63 in 10.0 mi ENE 13.8 mph 19.6 mph N/A   Overcast
10:36 AM 39.2 °F 31.6 °F 33.8 °F 81% 29.64 in 10.0 mi ENE 12.7 mph - N/A   Overcast
10:56 AM 41.0 °F 33.9 °F 33.8 °F 76% 29.64 in 10.0 mi ENE 12.7 mph 19.6 mph N/A   Overcast
11:16 AM 41.0 °F 35.2 °F 33.8 °F 76% 29.64 in 10.0 mi East 9.2 mph 16.1 mph N/A   Overcast
11:36 AM 42.8 °F 37.5 °F 33.8 °F 70% 29.64 in 10.0 mi ENE 9.2 mph 16.1 mph N/A   Overcast
11:56 AM 41.0 °F 34.3 °F 33.8 °F 76% 29.64 in 10.0 mi ENE 11.5 mph - N/A   Overcast
12:36 PM 41.0 °F 34.3 °F 35.6 °F 81% 29.64 in 10.0 mi East 11.5 mph 18.4 mph N/A   Overcast
12:56 PM 42.8 °F 37.5 °F 33.8 °F 70% 29.63 in 10.0 mi East 9.2 mph 16.1 mph N/A   Overcast
1:16 PM 42.8 °F 38.0 °F 33.8 °F 70% 29.63 in 10.0 mi East 8.1 mph - N/A   Overcast
1:36 PM 42.8 °F 40.1 °F 35.6 °F 76% 29.64 in 10.0 mi East 4.6 mph - N/A   Overcast
2:16 PM 42.8 °F 36.2 °F 33.8 °F 70% 29.64 in 10.0 mi East 12.7 mph 16.1 mph N/A   Mostly Cloudy
2:36 PM 42.8 °F 36.2 °F 33.8 °F 70% 29.64 in 10.0 mi East 12.7 mph 18.4 mph N/A   Mostly Cloudy
2:56 PM 42.8 °F 38.6 °F 33.8 °F 70% 29.65 in 10.0 mi East 6.9 mph 16.1 mph N/A   Mostly Cloudy
3:16 PM 42.8 °F 40.1 °F 33.8 °F 70% 29.66 in 10.0 mi SE 4.6 mph - N/A   Overcast
3:36 PM 42.8 °F 38.0 °F 33.8 °F 70% 29.67 in 10.0 mi East 8.1 mph - N/A   Mostly Cloudy
4:16 PM 41.0 °F 36.4 °F 35.6 °F 81% 29.69 in 10.0 mi East 6.9 mph - N/A   Overcast
4:36 PM 39.2 °F - 35.6 °F 87% 29.69 in 9.0 mi Calm Calm - N/A   Overcast
4:56 PM 39.2 °F 33.6 °F 33.8 °F 81% 29.70 in 10.0 mi East 8.1 mph - N/A   Overcast
5:16 PM 39.2 °F 35.0 °F 35.6 °F 87% 29.70 in 9.0 mi SSW 5.8 mph - N/A   Overcast
5:36 PM 39.2 °F - 35.6 °F 87% 29.70 in 10.0 mi Calm Calm - N/A   Overcast
5:56 PM 39.2 °F 35.9 °F 35.6 °F 87% 29.70 in 10.0 mi ENE 4.6 mph - N/A   Overcast
6:16 PM 39.2 °F 33.6 °F 35.6 °F 87% 29.71 in 10.0 mi East 8.1 mph - N/A   Scattered Clouds
6:36 PM 39.2 °F 35.0 °F 35.6 °F 87% 29.72 in 10.0 mi East 5.8 mph - N/A   Scattered Clouds
6:56 PM 39.2 °F 34.2 °F 35.6 °F 87% 29.71 in 10.0 mi East 6.9 mph - N/A   Scattered Clouds
7:16 PM 39.2 °F - 35.6 °F 87% 29.72 in 10.0 mi Calm Calm - N/A   Clear
7:36 PM 39.2 °F 35.0 °F 35.6 °F 87% 29.72 in 10.0 mi North 5.8 mph - N/A   Clear
7:56 PM 39.2 °F 34.2 °F 37.4 °F 93% 29.73 in 10.0 mi North 6.9 mph - N/A   Partly Cloudy
8:16 PM 39.2 °F 37.0 °F 35.6 °F 87% 29.73 in 10.0 mi East 3.5 mph - N/A   Partly Cloudy
8:36 PM 37.4 °F 34.9 °F 35.6 °F 93% 29.73 in 10.0 mi NE 3.5 mph - N/A   Clear
8:56 PM 37.4 °F 32.8 °F 35.6 °F 93% 29.74 in 10.0 mi NE 5.8 mph - N/A   Clear
9:16 PM 37.4 °F 34.9 °F 33.8 °F 87% 29.74 in 10.0 mi ENE 3.5 mph - N/A   Clear
9:36 PM 37.4 °F 34.9 °F 33.8 °F 87% 29.74 in 10.0 mi East 3.5 mph - N/A   Clear
9:56 PM 37.4 °F - 33.8 °F 87% 29.75 in 10.0 mi Calm Calm - N/A   Clear
10:16 PM 35.6 °F - 33.8 °F 93% 29.75 in 10.0 mi Calm Calm - N/A   Clear
10:36 PM 35.6 °F 32.8 °F 33.8 °F 93% 29.75 in 10.0 mi East 3.5 mph - N/A   Clear
10:56 PM 35.6 °F 32.8 °F 33.8 °F 93% 29.75 in 10.0 mi East 3.5 mph - N/A   Clear
11:16 PM 35.6 °F 32.8 °F 33.8 °F 93% 29.76 in 10.0 mi ENE 3.5 mph - N/A   Scattered Clouds
11:36 PM 35.6 °F - 33.8 °F 93% 29.77 in 10.0 mi Calm Calm - N/A   Mostly Cloudy
11:56 PM 35.6 °F 32.8 °F 33.8 °F 93% 29.77 in 9.0 mi East 3.5 mph - N/A   Mostly Cloudy